Weather History for KRGK - June, 2013

Change the Weather History Date:

Saturday, June 22, 2013

  Actual Average Record
Temperature  
Mean Temperature 73 °F -  
Max Temperature 82 °F 78 °F 89 °F (2002)
Min Temperature 64 °F 56 °F 46 °F (2001)
Cooling Degree Days 8    
Growing Degree Days 23 (Base 50)    
Moisture  
Dew Point 66 °F    
Average Humidity 80    
Maximum Humidity 100    
Minimum Humidity 65    
Precipitation  
Precipitation 0.35 in - - ()
Sea Level Pressure  
Sea Level Pressure 29.90 in    
Wind  
Wind Speed 7 mph (ESE)    
Max Wind Speed 14 mph    
Max Gust Speed 17 mph    
Visibility 10 miles    
Events Rain , Thunderstorm    
Averages and records for this station are not official NWS values.
T = Trace of Precipitation, MM = Missing Value Source: NWS Daily Summary

Daily Weather History Graph

Daily Weather History Graph

Search for Another Location

Airport or City:

Trip Planner

Search our weather history database for the weather conditions in past years. The results will help you decide how hot, cold, wet, or windy it might be!

Date:

Astronomy

Jun. 22, 2013 Rise Set
Actual Time 5:25 AM CDT 8:58 PM CDT
Civil Twilight 4:48 AM CDT 9:35 PM CDT
Nautical Twilight 3:59 AM CDT 10:24 PM CDT
Astronomical Twilight 2:55 AM CDT 11:28 PM CDT
Moon 8:11 PM CDT (6/22) 4:40 AM CDT (6/22)
Length of Visible Light 16h 47m
Length of Day
15h 33m
Waxing Gibbous, 99% of the Moon is Illuminated
Jun 22
Waxing Gibbous
Jun 23
Full
Jun 29
Last Quarter
Jul 8
New
Jul 15
First Quarter

Hourly Weather History & Observations

Time (CDT) Temp. Heat Index Dew Point Humidity Pressure Visibility Wind Dir Wind Speed Gust Speed Precip Events Conditions
12:15 AM 69.8 °F - 60.8 °F 73% 29.90 in 10.0 mi SE 10.4 mph - N/A   Clear
12:35 AM 69.8 °F - 60.8 °F 73% 29.87 in 10.0 mi SE 10.4 mph - N/A   Clear
12:55 AM 69.8 °F - 60.8 °F 73% 29.87 in 10.0 mi SSE 6.9 mph - N/A   Clear
1:15 AM 69.8 °F - 60.8 °F 73% 29.90 in 10.0 mi Calm Calm - N/A   Clear
1:35 AM 68.0 °F - 60.8 °F 78% 29.90 in 10.0 mi North 4.6 mph - N/A   Clear
1:55 AM 68.0 °F - 60.8 °F 78% 29.93 in 10.0 mi North 9.2 mph - N/A   Clear
2:15 AM 68.0 °F - 60.8 °F 78% 29.97 in 10.0 mi WNW 4.6 mph - N/A Thunderstorm Mostly Cloudy
2:35 AM 66.2 °F - 62.6 °F 88% 29.97 in 7.0 mi NE 5.8 mph - 0.03 in Rain , Thunderstorm Rain
2:55 AM 66.2 °F - 62.6 °F 88% 29.97 in 10.0 mi ENE 4.6 mph - 0.04 in Rain , Thunderstorm Light Thunderstorms and Rain
3:15 AM 66.2 °F - 62.6 °F 88% 29.99 in 7.0 mi ENE 3.5 mph - 0.05 in Rain , Thunderstorm Heavy Thunderstorms and Rain
3:35 AM 66.2 °F - 62.6 °F 88% 30.02 in 7.0 mi Calm Calm - 0.13 in Rain , Thunderstorm Heavy Thunderstorms and Rain
3:55 AM 64.4 °F - 62.6 °F 94% 29.98 in 10.0 mi East 6.9 mph - 0.16 in Rain , Thunderstorm Thunderstorms and Rain
4:15 AM 64.4 °F - 62.6 °F 94% 29.92 in 10.0 mi NE 11.5 mph - 0.06 in Rain , Thunderstorm Heavy Thunderstorms and Rain
4:35 AM 64.4 °F - 62.6 °F 94% 29.88 in 10.0 mi East 8.1 mph 17.3 mph 0.10 in Rain , Thunderstorm Thunderstorms and Rain
4:55 AM 66.2 °F - 62.6 °F 88% 29.91 in 10.0 mi SE 3.5 mph 16.1 mph 0.12 in Rain Rain
5:15 AM 66.2 °F - 62.6 °F 88% 29.92 in 10.0 mi South 3.5 mph - N/A Rain , Thunderstorm Light Thunderstorms and Rain
5:35 AM 66.2 °F - 64.4 °F 94% 29.99 in 10.0 mi West 8.1 mph - 0.01 in Rain , Thunderstorm Light Thunderstorms and Rain
5:55 AM 66.2 °F - 64.4 °F 94% 30.02 in 10.0 mi West 8.1 mph 16.1 mph 0.01 in Rain Light Rain
6:15 AM 66.2 °F - 64.4 °F 94% 30.05 in 10.0 mi West 9.2 mph - N/A Rain Light Rain
6:35 AM 66.2 °F - 64.4 °F 94% 30.00 in 10.0 mi Calm Calm - 0.02 in Rain Light Rain
6:55 AM 64.4 °F - 64.4 °F 100% 29.90 in 5.0 mi East 13.8 mph - 0.02 in   Scattered Clouds
7:15 AM 64.4 °F - 62.6 °F 94% 29.88 in 10.0 mi East 8.1 mph 16.1 mph N/A   Clear
7:35 AM 66.2 °F - 64.4 °F 94% 29.90 in 10.0 mi NE 4.6 mph - N/A   Scattered Clouds
7:55 AM 66.2 °F - 64.4 °F 94% 29.89 in 10.0 mi ENE 5.8 mph - N/A   Clear
8:15 AM 66.2 °F - 64.4 °F 94% 29.90 in 10.0 mi ESE 8.1 mph - N/A   Scattered Clouds
8:35 AM 66.2 °F - 64.4 °F 94% 29.91 in 10.0 mi SE 9.2 mph - N/A   Scattered Clouds
8:55 AM 66.2 °F - 64.4 °F 94% 29.94 in 10.0 mi SE 13.8 mph 17.3 mph N/A   Mostly Cloudy
9:15 AM 68.0 °F - 66.2 °F 94% 29.94 in 10.0 mi SE 8.1 mph - N/A   Overcast
9:35 AM 69.8 °F - 66.2 °F 88% 29.94 in 10.0 mi SE 8.1 mph - N/A   Scattered Clouds
9:55 AM 71.6 °F - 66.2 °F 83% 29.93 in 10.0 mi SE 6.9 mph - N/A   Scattered Clouds
10:15 AM 71.6 °F - 66.2 °F 83% 29.93 in 10.0 mi SSE 8.1 mph - N/A   Clear
10:35 AM 71.6 °F - 66.2 °F 83% 29.93 in 10.0 mi SSE 12.7 mph - N/A   Clear
10:55 AM 73.4 °F - 66.2 °F 78% 29.94 in 10.0 mi SSE 8.1 mph - N/A   Clear
11:15 AM 75.2 °F - 66.2 °F 73% 29.95 in 10.0 mi South 8.1 mph - N/A   Scattered Clouds
11:35 AM 75.2 °F - 64.4 °F 69% 29.94 in 10.0 mi SSE 5.8 mph - N/A   Scattered Clouds
11:55 AM 75.2 °F - 66.2 °F 73% 29.93 in 10.0 mi SSE 4.6 mph - N/A   Scattered Clouds
12:15 PM 77.0 °F - 66.2 °F 69% 29.92 in 10.0 mi SE 3.5 mph - N/A   Clear
12:35 PM 77.0 °F - 66.2 °F 69% 29.91 in 10.0 mi SSE 3.5 mph - N/A   Clear
12:55 PM 77.0 °F - 66.2 °F 69% 29.91 in 10.0 mi Calm Calm - N/A   Clear
1:15 PM 77.0 °F - 66.2 °F 69% 29.90 in 10.0 mi East 4.6 mph - N/A   Scattered Clouds
1:35 PM 77.0 °F - 68.0 °F 74% 29.90 in 10.0 mi East 5.8 mph - N/A   Clear
1:55 PM 77.0 °F - 68.0 °F 74% 29.90 in 10.0 mi SE 9.2 mph - N/A   Scattered Clouds
2:15 PM 78.8 °F - 66.2 °F 65% 29.91 in 10.0 mi ESE 6.9 mph - N/A   Scattered Clouds
2:35 PM 78.8 °F - 68.0 °F 69% 29.90 in 10.0 mi East 6.9 mph - N/A   Clear
2:55 PM 80.6 °F 83.2 °F 68.0 °F 65% 29.89 in 10.0 mi SSE 8.1 mph - N/A   Clear
3:15 PM 78.8 °F - 68.0 °F 69% 29.90 in 10.0 mi SSE 5.8 mph - N/A   Scattered Clouds
3:35 PM 80.6 °F 83.2 °F 68.0 °F 65% 29.90 in 10.0 mi ESE 4.6 mph - N/A   Scattered Clouds
3:55 PM 80.6 °F 83.2 °F 68.0 °F 65% 29.90 in 10.0 mi Calm Calm - N/A   Clear
4:15 PM 82.4 °F 86.3 °F 69.8 °F 66% 29.89 in 10.0 mi East 4.6 mph - N/A   Clear
4:35 PM 82.4 °F 86.3 °F 69.8 °F 66% 29.89 in 10.0 mi SE 5.8 mph - N/A   Clear
4:55 PM 82.4 °F 86.3 °F 69.8 °F 66% 29.87 in 10.0 mi East 3.5 mph - N/A   Clear
5:15 PM 80.6 °F 83.9 °F 69.8 °F 70% 29.87 in 10.0 mi ENE 3.5 mph - N/A   Scattered Clouds
5:35 PM 80.6 °F 83.9 °F 69.8 °F 70% 29.87 in 10.0 mi ENE 6.9 mph - N/A Thunderstorm Scattered Clouds
5:55 PM 78.8 °F - 69.8 °F 74% 29.86 in 10.0 mi ENE 5.8 mph - N/A Thunderstorm Clear
6:15 PM 78.8 °F - 69.8 °F 74% 29.88 in 10.0 mi East 5.8 mph - N/A Thunderstorm Thunderstorm
6:35 PM 77.0 °F - 69.8 °F 78% 29.87 in 10.0 mi Calm Calm - N/A Thunderstorm Scattered Clouds
6:55 PM 77.0 °F - 69.8 °F 78% 29.87 in 10.0 mi ENE 8.1 mph - N/A Rain , Thunderstorm Light Thunderstorms and Rain
7:15 PM 78.8 °F - 68.0 °F 69% 29.85 in 10.0 mi ENE 10.4 mph - N/A Thunderstorm Clear
7:35 PM 78.8 °F - 68.0 °F 69% 29.85 in 10.0 mi ENE 6.9 mph - N/A   Clear
7:55 PM 77.0 °F - 68.0 °F 74% 29.84 in 10.0 mi NE 5.8 mph - N/A   Clear
8:15 PM 77.0 °F - 68.0 °F 74% 29.84 in 10.0 mi NE 5.8 mph - N/A   Clear
8:35 PM 75.2 °F - 68.0 °F 78% 29.83 in 10.0 mi ENE 6.9 mph - N/A   Clear
8:55 PM 75.2 °F - 68.0 °F 78% 29.83 in 10.0 mi ENE 6.9 mph - N/A Thunderstorm Clear
9:15 PM 75.2 °F - 68.0 °F 78% 29.83 in 10.0 mi ENE 6.9 mph - N/A   Clear
9:35 PM 75.2 °F - 68.0 °F 78% 29.84 in 10.0 mi East 4.6 mph - N/A   Clear
9:55 PM 73.4 °F - 69.8 °F 88% 29.86 in 10.0 mi ESE 6.9 mph - N/A   Clear
10:15 PM 73.4 °F - 69.8 °F 88% 29.87 in 10.0 mi SE 4.6 mph - N/A   Mostly Cloudy
10:35 PM 73.4 °F - 69.8 °F 88% 29.86 in 10.0 mi ESE 6.9 mph - N/A   Mostly Cloudy
10:55 PM 73.4 °F - 68.0 °F 83% 29.85 in 10.0 mi ESE 5.8 mph - N/A   Scattered Clouds
11:15 PM 71.6 °F - 66.2 °F 83% 29.85 in 10.0 mi SE 6.9 mph - N/A   Clear
11:35 PM 71.6 °F - 66.2 °F 83% 29.86 in 10.0 mi SE 8.1 mph - N/A Thunderstorm Clear
11:55 PM 71.6 °F - 66.2 °F 83% 29.87 in 10.0 mi ESE 8.1 mph - N/A   Clear